Flag for Mexico Weather past 2 weeks in Mexico City, Federal District, Mexico

Now
59 °F

Light rain. Mostly cloudy.


Feels Like: 59 °F
Forecast: 58 / 74 °F
Wind: 5 mph from Northwest

Location: Mexico City / Licenci

Current Time: Sep 2, 2015 at 4:26:28 AM

Latest Report: Sep 2, 2015 at 3:52 AM


Visibility: 4 mi

Pressure: 29.88 "Hg (22.91 "Hg at 2241m altitude)

Humidity: 88%

Dew point: 55 °F

Location of Mexico CityLocation

Historic Weather in Mexico City — Graph

°F

Mexico City temperature yesterday

Maximum temperature yesterday: 75 °F (at 1:48 PM)
Minimum temperature yesterday: 57 °F (at 2:53 AM)
Average temperature yesterday: 64 °F

Past Weeks' High & Low Weather Summary

 TemperatureHumidityPressure
High77 °F (Aug 20, 2:43 PM)94% (Aug 18, 2:54 AM)30.43 "Hg (Aug 18, 2:54 AM)
Low55 °F (Aug 20, 4:46 AM)32% (Aug 23, 4:46 PM)29.58 "Hg (Aug 21, 3:49 PM)
Average64 °F65%30.22 "Hg
* Reported Aug 18 2:54 AM — Sep 2 2:46 AM, Mexico City, Weather by CustomWeather, © 2015

Note: Actual official high and low records may vary slightly from our data, if they occured in-between our weather recording intervals... More about our weather records

Advertising

Mexico City weather history for previous 24 hours

 ConditionsComfort  
Time TempWeatherWind HumidityBarometerVisibility
2:46 AM
Wed, Sep 2
59 °FLight rain. Mostly cloudy.7 mph88%30.38 "Hg4 mi
1:52 AM59 °FLight rain. Mostly cloudy.9 mph88%30.38 "Hg5 mi
12:51 AM61 °FPartly cloudy.6 mph77%29.85 "Hg8 mi
10:48 PM
Tue, Sep 1
66 °FPassing clouds.7 mph64%30.35 "Hg8 mi
9:46 PM68 °FMostly cloudy.7 mph69%29.80 "Hg8 mi
8:45 PM68 °FCloudy.6 mph64%30.32 "Hg6 mi
7:46 PM68 °FCloudy.5 mph60%30.29 "Hg6 mi
6:48 PM70 °FMore clouds than sun.5 mph53%29.77 "Hg6 mi
5:47 PM68 °FCloudy.5 mph60%30.28 "Hg6 mi
4:04 PM63 °FSleet. Cloudy.N/A77%30.29 "HgN/A
3:14 PM72 °FSleet. Cloudy.N/A50%30.28 "HgN/A
2:46 PM75 °FPartly sunny.6 mph39%30.30 "Hg7 mi
1:48 PM75 °FPartly sunny.12 mph39%30.33 "Hg7 mi
12:46 PM73 °FScattered clouds.9 mph41%29.84 "Hg7 mi
10:46 AM68 °FSunny.3 mph56%30.37 "Hg7 mi
10:21 AM66 °FScattered clouds.2 mph60%30.38 "Hg5 mi
9:48 AM64 °FSunny.No wind68%29.90 "Hg5 mi
9:24 AM63 °FSunny.5 mph73%30.37 "Hg5 mi
9:23 AM63 °FSunny.5 mph73%30.37 "Hg5 mi
8:46 AM59 °FSunny.5 mph82%30.36 "Hg5 mi
8:22 AM57 °FPassing clouds.6 mph88%30.36 "Hg5 mi
7:47 AM57 °FPassing clouds.2 mph82%30.35 "Hg5 mi
7:24 AM57 °FPassing clouds.3 mph82%30.35 "Hg5 mi
6:52 AM57 °FClear.2 mph82%29.89 "Hg5 mi
5:50 AM57 °FClear.No wind82%30.35 "Hg5 mi
4:45 AM57 °FClear.No wind88%30.35 "Hg14 mi
Weather by CustomWeather, © 2015

See weather overviewHow to use our weather pages